Home   Weather   Billings   Past weeks

Flag for USA Past Weather in Billings, Montana, USA — Yesterday and Last 2 Weeks

Now
63 °F

Clear.


Feels Like: 63 °F
Forecast: 53 / 83 °F
Wind: 16 mph from West

Location: Billings Logan International Airport

Current Time: Sep 27, 2016 at 1:06:01 AM

Latest Report: Sep 26, 2016 at 11:53 PM


Visibility: 10 mi

Pressure: 30.07 "Hg (26.90 "Hg at 946m altitude)

Humidity: 50%

Dew Point: 44 °F

Location of BillingsLocation

Past Weather in Billings — Graph

°F

Billings Temperature Yesterday

Maximum temperature yesterday: 73 °F (at 2:53 PM)
Minimum temperature yesterday: 49 °F (at 7:53 AM)
Average temperature yesterday: 62 °F

High & Low Weather Summary for the Past Weeks

 TemperatureHumidityPressure
High80 °F (Sep 18, 2:53 PM)100% (Sep 14, 8:04 AM)30.39 "Hg (Sep 14, 8:04 AM)
Low40 °F (Sep 14, 5:53 AM)19% (Sep 17, 3:53 PM)29.67 "Hg (Sep 18, 12:53 AM)
Average57 °F65%30.03 "Hg
* Reported Sep 11 11:53 PM — Sep 26 11:53 PM, Billings, Weather by CustomWeather, © 2016

Note: Actual official high and low records may vary slightly from our data, if they occured in-between our weather recording intervals... More about our weather records

Advertising

Billings Weather History for the Previous 24 Hours

Scroll right to see more
 ConditionsComfort  
Time TempWeatherWind HumidityBarometerVisibility
11:53 PM
Mon, Sep 26
63 °FClear.16 mph50%30.07 "Hg10 mi
10:53 PM63 °FClear.18 mph52%30.09 "Hg10 mi
9:53 PM64 °FClear.18 mph50%30.09 "Hg10 mi
8:53 PM65 °FClear.16 mph49%30.11 "Hg10 mi
7:53 PM67 °FPassing clouds.13 mph45%30.13 "Hg10 mi
6:53 PM69 °FScattered clouds.9 mph44%30.13 "Hg10 mi
5:53 PM72 °FScattered clouds.10 mph38%30.13 "Hg10 mi
4:53 PM73 °FScattered clouds.12 mph37%30.14 "Hg10 mi
3:53 PM73 °FScattered clouds.12 mph36%30.16 "Hg10 mi
2:53 PM73 °FScattered clouds.12 mph36%30.18 "Hg10 mi
1:53 PM70 °FScattered clouds.13 mph38%30.22 "Hg10 mi
12:53 PM67 °FScattered clouds.13 mph42%30.25 "Hg10 mi
11:53 AM65 °FScattered clouds.7 mph49%30.28 "Hg10 mi
10:53 AM60 °FScattered clouds.10 mph56%30.30 "Hg10 mi
9:53 AM57 °FPassing clouds.13 mph60%30.32 "Hg10 mi
8:53 AM52 °FScattered clouds.13 mph69%30.33 "Hg10 mi
7:53 AM49 °FScattered clouds.14 mph77%30.34 "Hg10 mi
6:53 AM50 °FPassing clouds.13 mph74%30.32 "Hg10 mi
5:53 AM52 °FPassing clouds.12 mph69%30.30 "Hg10 mi
4:53 AM54 °FClear.18 mph64%30.29 "Hg10 mi
3:53 AM54 °FPassing clouds.16 mph64%30.29 "Hg10 mi
2:53 AM54 °FPassing clouds.12 mph64%30.29 "Hg10 mi
1:53 AM56 °FPassing clouds.12 mph60%30.29 "Hg10 mi
Weather by CustomWeather, © 2016

See weather overviewHow to use our weather pages